User: anonymous   Login
Location: Unspecified
(0.0000°N, 0.0000°E)
Time: 07:17:30
(UTC+00:00)
Language:

ASTRA 1KR - Orbit

View from above orbital plane
View from above orbital plane
View from above satellite
View from above satellite

Ground track
Ground track

The orbit data is extracted from the following two-line orbital elements,

1 29055U 06012A   14325.21799074  .00000130  00000-0  00000+0 0  1911
2 29055 000.0515 303.8818 0004990 318.7910 255.1986 01.00276105 31413
Epoch (UTC): 21 November 2014 05:13:54
Eccentricity: 0.0004990
inclination: 0.0515°
perigee height: 35764 km
apogee height: 35806 km
right ascension of ascending node: 303.8818°
argument of perigee: 318.7910°
revolutions per day: 1.00276105
mean anomaly at epoch: 255.1986°
orbit number at epoch: 3141

The dashed part of the orbit path shows where the satellite is in the earth's shadow,  

DLR